Regional Weather Roundup
Issued by NWS Sioux Falls, SD

Home | Current Version | Previous Version | Text Only | Print | Product List | Glossary On
Versions: 1 2 3 4 5 6 7 8 9 10 11 12 13 14 15 16 17 18 19 20 21 22 23 24 25 26 27 28 29 30 31 32 33 34 35 36 37 38 39 40 41 42 43 44 45 46 47 48 49 50
000
ASUS43 KFSD 282110
RWRFSD

WEATHER ROUNDUP FOR SE SOUTH DAKOTA/SW MINNESOTA/NW IOWA
NATIONAL WEATHER SERVICE SIOUX FALLS SD
400 PM CDT WED SEP 28 2016

NOTE: "FAIR" INDICATES FEW OR NO CLOUDS BELOW 12,000 FEET WITH NO
SIGNIFICANT WEATHER AND OR OBSTRUCTIONS TO VISIBILITY.


SDZ038>040-050-052>070-282200-
SOUTHEAST SOUTH DAKOTA

CITY           SKY/WX    TMP DP  RH WIND       PRES   REMARKS
BROOKINGS      SUNNY     61  46  57 NE10      30.28R
CHAMBERLAIN    SUNNY     69  44  41 E6        30.27R
HURON          SUNNY     68  44  42 VRB6      30.27S
MADISON        FAIR      63  45  51 N9G16     30.27S
MITCHELL       SUNNY     66  44  45 VRB5      30.27S
SIOUX FALLS    MOSUNNY   66  46  48 NE13      30.26R
WINNER         FAIR      70  40  33 MISG      30.26S
YANKTON        SUNNY     64  43  45 N7        30.24R
$$

MNZ071-072-080-081-089-090-097-098-282200-
SOUTHWEST MINNESOTA

CITY           SKY/WX    TMP DP  RH WIND       PRES   REMARKS
FAIRMONT       CLOUDY    61  47  59 N12G20    30.24R
JACKSON        PTSUNNY   63  43  48 NE13G21   30.24S
LUVERNE        PTSUNNY   55  43  62 NE8       30.29R
MARSHALL       PTSUNNY   61  47  59 N10       30.27S
MONTEVIDEO     MOSUNNY   66  46  48 NE8       30.29R
PIPESTONE      MOSUNNY   59  45  58 NE8       30.28R
REDWOOD FALLS  CLOUDY    65  46  50 NE12      30.25R
TRACY          PTSUNNY   63  49  59 N8        30.27R
WINDOM         PTSUNNY   63  45  51 N14       30.24S
WORTHINGTON    CLOUDY    58  47  66 N9        30.26R
$$

IAZ001>003-012>014-020>022-031-032-NEZ013-014-SDZ071-282200-
NORTHWEST IOWA

CITY           SKY/WX    TMP DP  RH WIND       PRES   REMARKS
CHEROKEE       PTSUNNY   60  49  65 N10       30.24R
DENISON        PTSUNNY   63  48  59 N13       30.20R
ESTHERVILLE    CLOUDY    59  48  67 N15       30.23R
LE MARS        MOSUNNY   61  46  59 N10G17    30.26S
ORANGE CITY    MOSUNNY   61  46  59 NE9G16    30.26R
SHELDON        CLOUDY    59  46  63 N8G16     30.25R
SIOUX CITY     SUNNY     65  48  54 NE9       30.24R
SPENCER        CLOUDY    62  47  57 N16       30.24R
STORM LAKE     SUNNY     63  46  55 N12G21    30.22R
$$

ABBREVIATIONS USED IN REMARKS
   TC - TEMPERATURE IN CELSIUS
  WCI - WIND CHILL INDEX
   HX - HEAT INDEX
  VSB - VISIBILITY





USA.gov is the U.S. government's official web portal to all federal, state and local government web resources and services.